Time,TemperatureF,DewpointF,PressureIn,WindDirection,WindDirectionDegrees,WindSpeedMPH,WindSpeedGustMPH,Humidity,HourlyPrecipIn,Conditions,Clouds,dailyrainin,SoftwareType,DateUTC
2013-12-13 00:01:00,20.2,13.2,30.43,SSW,199,0.0,0.0,74,0.00,,---,0.00,VWS V14.01,2013-12-13 05:01:00,
2013-12-13 00:06:00,20.0,13.4,30.43,SSW,198,0.0,0.0,75,0.00,,---,0.00,VWS V14.01,2013-12-13 05:06:00,
2013-12-13 00:11:00,20.1,13.8,30.42,SSW,198,0.0,0.0,76,0.00,,---,0.00,VWS V14.01,2013-12-13 05:11:00,
2013-12-13 00:16:00,19.9,13.9,30.42,SSW,198,0.0,0.0,77,0.00,,---,0.00,VWS V14.01,2013-12-13 05:16:00,
2013-12-13 00:21:00,19.7,13.7,30.42,SSW,199,0.0,0.0,77,0.00,,---,0.00,VWS V14.01,2013-12-13 05:21:00,
2013-12-13 00:26:00,19.4,13.4,30.42,SSW,198,0.0,0.0,77,0.00,,---,0.00,VWS V14.01,2013-12-13 05:26:00,
2013-12-13 00:31:00,19.2,13.2,30.42,SSW,198,0.0,0.0,77,0.00,,---,0.00,VWS V14.01,2013-12-13 05:31:00,
2013-12-13 00:36:00,19.0,13.3,30.42,SSW,197,0.0,0.0,78,0.00,,---,0.00,VWS V14.01,2013-12-13 05:36:00,
2013-12-13 00:41:00,18.9,13.2,30.42,SSW,197,0.0,0.0,78,0.00,,---,0.00,VWS V14.01,2013-12-13 05:41:00,
2013-12-13 00:46:00,18.8,13.1,30.42,SSW,197,0.0,0.0,78,0.00,,---,0.00,VWS V14.01,2013-12-13 05:46:00,
2013-12-13 00:51:00,18.7,13.0,30.42,SSW,197,0.0,0.0,78,0.00,,---,0.00,VWS V14.01,2013-12-13 05:51:00,
2013-12-13 00:56:00,18.5,13.1,30.42,SSW,197,0.0,0.0,79,0.00,,---,0.00,VWS V14.01,2013-12-13 05:56:00,
2013-12-13 01:01:00,18.4,13.3,30.42,ESE,115,0.0,0.0,80,0.00,,---,0.00,VWS V14.01,2013-12-13 06:01:00,
2013-12-13 01:06:00,18.7,13.6,30.42,ESE,115,0.0,0.0,80,0.00,,---,0.00,VWS V14.01,2013-12-13 06:06:00,
2013-12-13 01:11:00,18.8,13.4,30.42,ESE,115,0.0,0.0,79,0.00,,---,0.00,VWS V14.01,2013-12-13 06:11:00,
2013-12-13 01:16:00,18.7,13.3,30.42,ESE,115,0.0,0.0,79,0.00,,---,0.00,VWS V14.01,2013-12-13 06:16:00,
2013-12-13 01:21:00,18.8,13.4,30.42,ESE,115,0.0,0.0,79,0.00,,---,0.00,VWS V14.01,2013-12-13 06:21:00,
2013-12-13 01:26:00,18.9,13.8,30.41,SE,133,0.0,0.0,80,0.00,,---,0.00,VWS V14.01,2013-12-13 06:26:00,
2013-12-13 01:31:00,19.2,14.1,30.41,East,81,0.0,1.0,80,0.00,,---,0.00,VWS V14.01,2013-12-13 06:31:00,
2013-12-13 01:36:00,19.4,14.0,30.41,NE,46,0.0,1.0,79,0.00,,---,0.00,VWS V14.01,2013-12-13 06:36:00,
2013-12-13 01:41:00,19.7,14.3,30.41,East,95,0.0,0.0,79,0.00,,---,0.00,VWS V14.01,2013-12-13 06:41:00,
2013-12-13 01:46:00,19.9,14.4,30.41,SW,236,0.0,1.0,79,0.00,,---,0.00,VWS V14.01,2013-12-13 06:46:00,
2013-12-13 01:51:00,20.0,14.3,30.41,WSW,239,0.0,0.0,78,0.00,,---,0.00,VWS V14.01,2013-12-13 06:51:00,
2013-12-13 01:56:00,20.0,14.3,30.41,WSW,239,0.0,0.0,78,0.00,,---,0.00,VWS V14.01,2013-12-13 06:56:00,
2013-12-13 02:01:00,19.8,14.1,30.40,WSW,240,0.0,0.0,78,0.00,,---,0.00,VWS V14.01,2013-12-13 07:01:00,
2013-12-13 02:06:00,19.8,14.1,30.40,NE,53,0.0,1.0,78,0.00,,---,0.00,VWS V14.01,2013-12-13 07:06:00,
2013-12-13 02:11:00,20.1,14.4,30.40,NE,54,0.0,0.0,78,0.00,,---,0.00,VWS V14.01,2013-12-13 07:11:00,
2013-12-13 02:16:00,20.3,14.3,30.40,West,270,0.0,0.0,77,0.00,,---,0.00,VWS V14.01,2013-12-13 07:16:00,
2013-12-13 02:21:00,20.2,13.9,30.40,West,270,0.0,0.0,76,0.00,,---,0.00,VWS V14.01,2013-12-13 07:21:00,
2013-12-13 02:26:00,20.0,13.7,30.40,West,270,0.0,0.0,76,0.00,,---,0.00,VWS V14.01,2013-12-13 07:26:00,
2013-12-13 02:31:00,19.9,13.9,30.40,West,270,0.0,0.0,77,0.00,,---,0.00,VWS V14.01,2013-12-13 07:31:00,
2013-12-13 02:36:00,19.7,13.7,30.40,West,270,0.0,0.0,77,0.00,,---,0.00,VWS V14.01,2013-12-13 07:36:00,
2013-12-13 02:41:00,19.3,13.3,30.40,West,270,0.0,0.0,77,0.00,,---,0.00,VWS V14.01,2013-12-13 07:41:00,
2013-12-13 02:46:00,18.9,13.2,30.39,West,270,0.0,0.0,78,0.00,,---,0.00,VWS V14.01,2013-12-13 07:46:00,
2013-12-13 02:51:00,18.6,13.2,30.39,West,270,0.0,0.0,79,0.00,,---,0.00,VWS V14.01,2013-12-13 07:51:00,
2013-12-13 02:55:00,18.5,13.4,30.39,North,353,0.0,0.0,80,0.00,,---,0.00,VWS V14.01,2013-12-13 07:55:00,
2013-12-13 03:00:00,18.5,13.4,30.39,North,353,0.0,0.0,80,0.00,,---,0.00,VWS V14.01,2013-12-13 08:00:00,
2013-12-13 03:05:00,18.3,13.2,30.39,North,353,0.0,0.0,80,0.00,,---,0.00,VWS V14.01,2013-12-13 08:05:00,
2013-12-13 03:10:00,18.2,13.1,30.39,North,353,0.0,0.0,80,0.00,,---,0.00,VWS V14.01,2013-12-13 08:10:00,
2013-12-13 03:15:00,18.1,13.0,30.39,North,353,0.0,0.0,80,0.00,,---,0.00,VWS V14.01,2013-12-13 08:15:00,
2013-12-13 03:20:00,18.0,13.2,30.39,North,352,0.0,0.0,81,0.00,,---,0.00,VWS V14.01,2013-12-13 08:20:00,
2013-12-13 03:25:00,17.9,12.8,30.39,North,352,0.0,0.0,80,0.00,,---,0.00,VWS V14.01,2013-12-13 08:25:00,
2013-12-13 03:30:00,17.8,13.0,30.39,North,352,0.0,0.0,81,0.00,,---,0.00,VWS V14.01,2013-12-13 08:30:00,
2013-12-13 03:35:00,17.8,13.2,30.39,WSW,246,0.0,0.0,82,0.00,,---,0.00,VWS V14.01,2013-12-13 08:35:00,
2013-12-13 03:40:00,17.9,13.4,30.39,WSW,245,0.0,0.0,82,0.00,,---,0.00,VWS V14.01,2013-12-13 08:40:00,
2013-12-13 03:45:00,18.0,13.2,30.39,WSW,246,0.0,0.0,81,0.00,,---,0.00,VWS V14.01,2013-12-13 08:45:00,
2013-12-13 03:50:00,17.9,13.1,30.39,WSW,246,0.0,0.0,81,0.00,,---,0.00,VWS V14.01,2013-12-13 08:50:00,
2013-12-13 03:55:00,18.1,13.3,30.39,WSW,246,0.0,0.0,81,0.00,,---,0.00,VWS V14.01,2013-12-13 08:55:00,
2013-12-13 04:00:00,18.2,13.4,30.38,WSW,245,0.0,0.0,81,0.00,,---,0.00,VWS V14.01,2013-12-13 09:00:00,
2013-12-13 04:05:00,18.3,13.2,30.38,WSW,246,0.0,0.0,80,0.00,,---,0.00,VWS V14.01,2013-12-13 09:05:00,
2013-12-13 04:10:00,18.1,12.7,30.38,WSW,245,0.0,0.0,79,0.00,,---,0.00,VWS V14.01,2013-12-13 09:10:00,
2013-12-13 04:15:00,17.9,12.5,30.38,WSW,246,0.0,0.0,79,0.00,,---,0.00,VWS V14.01,2013-12-13 09:15:00,
2013-12-13 04:20:00,17.7,12.6,30.38,WSW,246,0.0,0.0,80,0.00,,---,0.00,VWS V14.01,2013-12-13 09:20:00,
2013-12-13 04:25:00,17.6,12.8,30.37,WSW,246,0.0,0.0,81,0.00,,---,0.00,VWS V14.01,2013-12-13 09:25:00,
2013-12-13 04:30:00,17.4,12.6,30.37,WSW,246,0.0,0.0,81,0.00,,---,0.00,VWS V14.01,2013-12-13 09:30:00,
2013-12-13 04:35:00,17.3,12.5,30.37,WSW,246,0.0,0.0,81,0.00,,---,0.00,VWS V14.01,2013-12-13 09:35:00,
2013-12-13 04:40:00,17.4,12.6,30.37,WSW,246,0.0,0.0,81,0.00,,---,0.00,VWS V14.01,2013-12-13 09:40:00,
2013-12-13 04:45:00,17.5,12.7,30.36,WSW,246,0.0,0.0,81,0.00,,---,0.00,VWS V14.01,2013-12-13 09:45:00,
2013-12-13 04:50:00,17.6,12.8,30.36,WSW,246,0.0,0.0,81,0.00,,---,0.00,VWS V14.01,2013-12-13 09:50:00,
2013-12-13 04:55:00,17.6,12.8,30.36,WSW,246,0.0,0.0,81,0.00,,---,0.00,VWS V14.01,2013-12-13 09:55:00,
2013-12-13 05:04:00,17.7,12.9,30.36,North,0,0.0,0.0,81,0.00,,---,0.00,VWS V14.01,2013-12-13 10:04:00,
2013-12-13 05:09:00,17.5,12.7,30.36,WSW,246,0.0,0.0,81,0.00,,---,0.00,VWS V14.01,2013-12-13 10:09:00,
2013-12-13 05:14:00,17.4,12.9,30.36,WSW,246,0.0,0.0,82,0.00,,---,0.00,VWS V14.01,2013-12-13 10:14:00,
2013-12-13 05:19:00,17.4,12.9,30.36,WSW,245,0.0,0.0,82,0.00,,---,0.00,VWS V14.01,2013-12-13 10:19:00,
2013-12-13 05:24:00,17.4,13.1,30.36,WSW,247,0.0,0.0,83,0.00,,---,0.00,VWS V14.01,2013-12-13 10:24:00,
2013-12-13 05:29:00,17.4,13.1,30.36,WSW,247,0.0,0.0,83,0.00,,---,0.00,VWS V14.01,2013-12-13 10:29:00,
2013-12-13 05:34:00,17.4,13.1,30.36,WSW,245,0.0,0.0,83,0.00,,---,0.00,VWS V14.01,2013-12-13 10:34:00,
2013-12-13 05:39:00,17.4,13.1,30.36,WSW,245,0.0,0.0,83,0.00,,---,0.00,VWS V14.01,2013-12-13 10:39:00,
2013-12-13 05:44:00,17.4,13.1,30.36,WSW,247,0.0,0.0,83,0.00,,---,0.00,VWS V14.01,2013-12-13 10:44:00,
2013-12-13 05:49:00,17.3,13.0,30.36,WSW,247,0.0,0.0,83,0.00,,---,0.00,VWS V14.01,2013-12-13 10:49:00,
2013-12-13 05:54:00,17.3,13.0,30.36,WSW,247,0.0,0.0,83,0.00,,---,0.00,VWS V14.01,2013-12-13 10:54:00,
2013-12-13 05:59:00,17.5,13.2,30.35,NNW,330,0.0,1.0,83,0.00,,---,0.00,VWS V14.01,2013-12-13 10:59:00,
2013-12-13 06:04:00,17.9,13.6,30.35,ESE,108,0.0,0.0,83,0.00,,---,0.00,VWS V14.01,2013-12-13 11:04:00,
2013-12-13 06:08:00,18.4,13.8,30.35,ESE,107,0.0,0.0,82,0.00,,---,0.00,VWS V14.01,2013-12-13 11:08:00,
2013-12-13 06:13:00,18.5,13.9,30.35,ESE,107,0.0,0.0,82,0.00,,---,0.00,VWS V14.01,2013-12-13 11:13:00,
2013-12-13 06:18:00,18.6,14.0,30.35,ENE,76,0.0,0.0,82,0.00,,---,0.00,VWS V14.01,2013-12-13 11:18:00,
2013-12-13 06:23:00,18.6,13.8,30.35,ENE,78,0.0,0.0,81,0.00,,---,0.00,VWS V14.01,2013-12-13 11:23:00,
2013-12-13 06:28:00,18.5,13.6,30.35,ENE,78,0.0,0.0,81,0.00,,---,0.00,VWS V14.01,2013-12-13 11:28:00,
2013-12-13 06:33:00,18.6,13.8,30.35,East,83,0.0,0.0,81,0.00,,---,0.00,VWS V14.01,2013-12-13 11:33:00,
2013-12-13 06:38:00,18.7,13.9,30.35,East,83,0.0,0.0,81,0.00,,---,0.00,VWS V14.01,2013-12-13 11:38:00,
2013-12-13 06:43:00,18.8,13.9,30.35,East,83,0.0,0.0,81,0.00,,---,0.00,VWS V14.01,2013-12-13 11:43:00,
2013-12-13 06:48:00,18.9,13.8,30.35,East,83,0.0,0.0,80,0.00,,---,0.00,VWS V14.01,2013-12-13 11:48:00,
2013-12-13 06:53:00,19.0,13.9,30.35,SE,143,0.0,0.0,80,0.00,,---,0.00,VWS V14.01,2013-12-13 11:53:00,
2013-12-13 06:58:00,19.1,14.0,30.35,SE,143,0.0,0.0,80,0.00,,---,0.00,VWS V14.01,2013-12-13 11:58:00,
2013-12-13 07:03:00,19.2,14.1,30.35,SE,142,0.0,0.0,80,0.00,,---,0.00,VWS V14.01,2013-12-13 12:03:00,
2013-12-13 07:08:00,19.2,14.1,30.35,SSE,152,0.0,0.0,80,0.00,,---,0.00,VWS V14.01,2013-12-13 12:08:00,
2013-12-13 07:13:00,19.3,13.9,30.35,SSE,152,0.0,0.0,79,0.00,,---,0.00,VWS V14.01,2013-12-13 12:13:00,
2013-12-13 07:18:00,19.3,14.1,30.35,SW,216,0.0,0.0,80,0.00,,---,0.00,VWS V14.01,2013-12-13 12:18:00,
2013-12-13 07:23:00,19.2,14.1,30.35,SW,215,0.0,0.0,80,0.00,,---,0.00,VWS V14.01,2013-12-13 12:23:00,
2013-12-13 07:24:00,19.2,14.1,30.35,SW,216,0.0,0.0,80,0.00,,---,0.00,VWS V14.01,2013-12-13 12:24:00,
2013-12-13 07:29:00,19.1,14.0,30.35,SW,218,0.0,0.0,80,0.00,,---,0.00,VWS V14.01,2013-12-13 12:29:00,
2013-12-13 07:34:00,19.0,13.9,30.35,ESE,114,0.0,0.0,80,0.00,,---,0.00,VWS V14.01,2013-12-13 12:34:00,
2013-12-13 07:39:00,19.0,13.9,30.35,SSE,150,0.0,0.0,80,0.00,,---,0.00,VWS V14.01,2013-12-13 12:39:00,
2013-12-13 07:44:00,19.1,14.0,30.36,SE,133,0.0,0.0,80,0.00,,---,0.00,VWS V14.01,2013-12-13 12:44:00,
2013-12-13 07:49:00,19.1,13.7,30.36,SE,136,0.0,0.0,79,0.00,,---,0.00,VWS V14.01,2013-12-13 12:49:00,
2013-12-13 07:54:00,19.0,13.6,30.36,SE,135,0.0,0.0,79,0.00,,---,0.00,VWS V14.01,2013-12-13 12:54:00,
2013-12-13 07:59:00,19.0,13.6,30.36,SW,215,0.0,0.0,79,0.00,,---,0.00,VWS V14.01,2013-12-13 12:59:00,
2013-12-13 08:04:00,19.0,13.6,30.36,SW,215,0.0,0.0,79,0.00,,---,0.00,VWS V14.01,2013-12-13 13:04:00,
2013-12-13 08:09:00,18.8,13.4,30.36,SW,216,0.0,0.0,79,0.00,,---,0.00,VWS V14.01,2013-12-13 13:09:00,
2013-12-13 08:14:00,18.6,13.5,30.36,SW,215,0.0,0.0,80,0.00,,---,0.00,VWS V14.01,2013-12-13 13:14:00,
2013-12-13 08:19:00,18.8,13.7,30.36,SW,216,0.0,0.0,80,0.00,,---,0.00,VWS V14.01,2013-12-13 13:19:00,
2013-12-13 08:24:00,19.6,14.7,30.36,SW,215,0.0,0.0,81,0.00,,---,0.00,VWS V14.01,2013-12-13 13:24:00,
2013-12-13 08:29:00,20.8,15.9,30.36,SW,215,0.0,0.0,81,0.00,,---,0.00,VWS V14.01,2013-12-13 13:29:00,
2013-12-13 08:34:00,22.1,16.6,30.36,SW,215,0.0,0.0,79,0.00,,---,0.00,VWS V14.01,2013-12-13 13:34:00,
2013-12-13 08:39:00,23.1,17.0,30.35,South,183,0.0,0.0,77,0.00,,---,0.00,VWS V14.01,2013-12-13 13:39:00,
2013-12-13 08:43:00,23.8,16.7,30.35,South,169,0.0,0.0,74,0.00,,---,0.00,VWS V14.01,2013-12-13 13:43:00,
2013-12-13 08:48:00,24.0,16.3,30.35,SE,145,0.0,0.0,72,0.00,,---,0.00,VWS V14.01,2013-12-13 13:48:00,
2013-12-13 08:53:00,24.2,16.5,30.36,SE,146,0.0,0.0,72,0.00,,---,0.00,VWS V14.01,2013-12-13 13:53:00,
2013-12-13 08:58:00,24.7,17.0,30.36,SSW,198,0.0,3.0,72,0.00,,---,0.00,VWS V14.01,2013-12-13 13:58:00,
2013-12-13 09:03:00,25.2,17.1,30.36,SSE,166,0.0,2.0,71,0.00,,---,0.00,VWS V14.01,2013-12-13 14:03:00,
2013-12-13 09:08:00,25.7,17.3,30.36,SE,138,0.0,0.0,70,0.00,,---,0.00,VWS V14.01,2013-12-13 14:08:00,
2013-12-13 09:13:00,26.6,18.1,30.36,ENE,76,0.0,1.0,70,0.00,,---,0.00,VWS V14.01,2013-12-13 14:13:00,
2013-12-13 09:18:00,27.5,19.0,30.36,SSW,198,0.0,0.0,70,0.00,,---,0.00,VWS V14.01,2013-12-13 14:18:00,
2013-12-13 09:23:00,28.4,18.5,30.36,SE,143,0.0,1.0,66,0.00,,---,0.00,VWS V14.01,2013-12-13 14:23:00,
2013-12-13 09:28:00,29.2,19.3,30.36,SE,145,0.0,0.0,66,0.00,,---,0.00,VWS V14.01,2013-12-13 14:28:00,
2013-12-13 09:33:00,30.2,19.9,30.36,WNW,285,4.0,4.0,65,0.00,,---,0.00,VWS V14.01,2013-12-13 14:33:00,
2013-12-13 09:38:00,30.8,19.0,30.36,SSW,202,0.0,1.0,61,0.00,,---,0.00,VWS V14.01,2013-12-13 14:38:00,
2013-12-13 09:43:00,31.4,19.1,30.36,WSW,254,0.0,0.0,60,0.00,,---,0.00,VWS V14.01,2013-12-13 14:43:00,
2013-12-13 09:48:00,32.1,19.8,30.36,WNW,299,0.0,0.0,60,0.00,,---,0.00,VWS V14.01,2013-12-13 14:48:00,
2013-12-13 09:53:00,32.6,19.9,30.36,WNW,282,0.0,0.0,59,0.00,,---,0.00,VWS V14.01,2013-12-13 14:53:00,
2013-12-13 09:58:00,33.1,20.4,30.36,SE,130,2.0,2.0,59,0.00,,---,0.00,VWS V14.01,2013-12-13 14:58:00,
2013-12-13 10:03:00,33.8,20.6,30.36,SE,146,0.0,0.0,58,0.00,,---,0.00,VWS V14.01,2013-12-13 15:03:00,
2013-12-13 10:08:00,34.5,20.9,30.36,ENE,76,0.0,1.0,57,0.00,,---,0.00,VWS V14.01,2013-12-13 15:08:00,
2013-12-13 10:13:00,34.5,20.0,30.36,SW,231,5.0,5.0,55,0.00,,---,0.00,VWS V14.01,2013-12-13 15:13:00,
2013-12-13 10:18:00,34.2,19.3,30.36,East,79,1.0,3.0,54,0.00,,---,0.00,VWS V14.01,2013-12-13 15:18:00,
2013-12-13 10:23:00,34.3,19.4,30.36,SE,140,0.0,2.0,54,0.00,,---,0.00,VWS V14.01,2013-12-13 15:23:00,
2013-12-13 10:28:00,34.7,20.2,30.36,SSE,159,1.0,1.0,55,0.00,,---,0.00,VWS V14.01,2013-12-13 15:28:00,
2013-12-13 10:33:00,35.2,20.7,30.35,NNE,24,0.0,0.0,55,0.00,,---,0.00,VWS V14.01,2013-12-13 15:33:00,
2013-12-13 10:38:00,35.8,20.8,30.35,SE,126,2.0,3.0,54,0.00,,---,0.00,VWS V14.01,2013-12-13 15:38:00,
2013-12-13 10:43:00,36.2,21.2,30.35,South,190,0.0,0.0,54,0.00,,---,0.00,VWS V14.01,2013-12-13 15:43:00,
2013-12-13 10:48:00,36.5,21.5,30.35,South,190,0.0,2.0,54,0.00,,---,0.00,VWS V14.01,2013-12-13 15:48:00,
2013-12-13 10:53:00,36.9,21.8,30.35,South,178,1.0,1.0,54,0.00,,---,0.00,VWS V14.01,2013-12-13 15:53:00,
2013-12-13 10:58:00,37.4,21.4,30.35,SSE,153,1.0,1.0,52,0.00,,---,0.00,VWS V14.01,2013-12-13 15:58:00,
2013-12-13 11:03:00,37.7,21.7,30.35,SSE,155,0.0,3.0,52,0.00,,---,0.00,VWS V14.01,2013-12-13 16:03:00,
2013-12-13 11:08:00,38.0,21.0,30.35,SW,223,2.0,3.0,50,0.01,,---,0.01,VWS V14.01,2013-12-13 16:08:00,
2013-12-13 11:13:00,37.8,21.8,30.35,WNW,290,0.0,2.0,52,0.01,,---,0.01,VWS V14.01,2013-12-13 16:13:00,
2013-12-13 11:18:00,37.9,22.3,30.35,WNW,292,1.0,2.0,53,0.01,,---,0.01,VWS V14.01,2013-12-13 16:18:00,
2013-12-13 11:23:00,38.2,22.6,30.35,ESE,104,0.0,2.0,53,0.01,,---,0.01,VWS V14.01,2013-12-13 16:23:00,
2013-12-13 11:28:00,38.6,22.0,30.35,SE,145,2.0,3.0,51,0.01,,---,0.01,VWS V14.01,2013-12-13 16:28:00,
2013-12-13 11:33:00,39.0,22.9,30.34,WSW,237,0.0,1.0,52,0.01,,---,0.01,VWS V14.01,2013-12-13 16:33:00,
2013-12-13 11:38:00,39.7,23.1,30.34,WNW,285,1.0,3.0,51,0.01,,---,0.01,VWS V14.01,2013-12-13 16:38:00,
2013-12-13 11:43:00,39.9,23.3,30.34,South,176,1.0,1.0,51,0.01,,---,0.01,VWS V14.01,2013-12-13 16:43:00,
2013-12-13 11:48:00,40.0,23.8,30.33,East,96,0.0,2.0,52,0.01,,---,0.01,VWS V14.01,2013-12-13 16:48:00,
2013-12-13 11:53:00,40.2,23.5,30.33,SSW,211,0.0,2.0,51,0.01,,---,0.01,VWS V14.01,2013-12-13 16:53:00,
2013-12-13 11:58:00,40.6,23.9,30.33,SSE,155,2.0,3.0,51,0.01,,---,0.01,VWS V14.01,2013-12-13 16:58:00,
2013-12-13 12:03:00,40.7,22.5,30.33,SSW,195,0.0,1.0,48,0.02,,---,0.02,VWS V14.01,2013-12-13 17:03:00,
2013-12-13 12:08:00,40.7,24.0,30.32,East,98,0.0,0.0,51,0.01,,---,0.02,VWS V14.01,2013-12-13 17:08:00,
2013-12-13 12:13:00,40.7,24.0,30.32,West,264,0.0,0.0,51,0.01,,---,0.02,VWS V14.01,2013-12-13 17:13:00,
2013-12-13 12:18:00,40.7,23.5,30.32,ENE,62,0.0,1.0,50,0.02,,---,0.03,VWS V14.01,2013-12-13 17:18:00,
2013-12-13 12:23:00,40.7,24.0,30.31,SE,124,0.0,0.0,51,0.02,,---,0.03,VWS V14.01,2013-12-13 17:23:00,
2013-12-13 12:28:00,40.7,23.0,30.31,SE,125,0.0,0.0,49,0.03,,---,0.04,VWS V14.01,2013-12-13 17:28:00,
2013-12-13 12:33:00,40.4,23.2,30.31,SE,136,0.0,0.0,50,0.03,,---,0.04,VWS V14.01,2013-12-13 17:33:00,
2013-12-13 12:38:00,40.0,23.8,30.30,South,173,0.0,0.0,52,0.04,,---,0.05,VWS V14.01,2013-12-13 17:38:00,
2013-12-13 12:43:00,40.1,23.0,30.30,SW,226,0.0,0.0,50,0.05,,---,0.06,VWS V14.01,2013-12-13 17:43:00,
2013-12-13 12:48:00,40.6,23.0,30.29,SSW,202,0.0,1.0,49,0.05,,---,0.06,VWS V14.01,2013-12-13 17:48:00,
2013-12-13 12:53:00,40.8,22.6,30.29,WSW,245,1.0,2.0,48,0.05,,---,0.06,VWS V14.01,2013-12-13 17:53:00,
2013-12-13 12:58:00,40.8,22.6,30.29,SSE,160,1.0,1.0,48,0.06,,---,0.07,VWS V14.01,2013-12-13 17:58:00,
2013-12-13 13:03:00,40.7,22.5,30.29,SE,131,0.0,0.0,48,0.05,,---,0.07,VWS V14.01,2013-12-13 18:03:00,
2013-12-13 13:08:00,40.9,23.2,30.29,ESE,116,0.0,0.0,49,0.05,,---,0.07,VWS V14.01,2013-12-13 18:08:00,
2013-12-13 13:13:00,40.7,22.5,30.28,ESE,115,1.0,1.0,48,0.05,,---,0.07,VWS V14.01,2013-12-13 18:13:00,
2013-12-13 13:18:00,40.6,23.0,30.28,SE,140,2.0,2.0,49,0.05,,---,0.08,VWS V14.01,2013-12-13 18:18:00,
2013-12-13 13:23:00,40.5,23.3,30.28,WSW,240,0.0,0.0,50,0.05,,---,0.08,VWS V14.01,2013-12-13 18:23:00,
2013-12-13 13:28:00,40.6,23.0,30.27,WSW,237,2.0,2.0,49,0.04,,---,0.08,VWS V14.01,2013-12-13 18:28:00,
2013-12-13 13:33:00,40.7,23.0,30.27,WSW,239,0.0,0.0,49,0.05,,---,0.09,VWS V14.01,2013-12-13 18:33:00,
2013-12-13 13:38:00,40.8,23.6,30.27,WSW,243,0.0,1.0,50,0.04,,---,0.09,VWS V14.01,2013-12-13 18:38:00,
2013-12-13 13:43:00,40.9,24.2,30.27,West,260,0.0,0.0,51,0.03,,---,0.09,VWS V14.01,2013-12-13 18:43:00,
2013-12-13 13:48:00,41.1,24.8,30.27,ESE,102,1.0,2.0,52,0.03,,---,0.09,VWS V14.01,2013-12-13 18:48:00,
2013-12-13 13:53:00,40.8,24.5,30.27,ENE,76,1.0,1.0,52,0.04,,---,0.10,VWS V14.01,2013-12-13 18:53:00,
2013-12-13 13:58:00,40.6,25.3,30.27,SE,126,2.0,3.0,54,0.03,,---,0.10,VWS V14.01,2013-12-13 18:58:00,
2013-12-13 14:03:00,40.1,24.4,30.27,ESE,104,0.0,2.0,53,0.03,,---,0.10,VWS V14.01,2013-12-13 19:03:00,
2013-12-13 14:08:00,40.0,25.1,30.26,ESE,119,0.0,1.0,55,0.03,,---,0.10,VWS V14.01,2013-12-13 19:08:00,
2013-12-13 14:13:00,39.9,24.6,30.26,ESE,121,0.0,0.0,54,0.03,,---,0.10,VWS V14.01,2013-12-13 19:13:00,
2013-12-13 14:18:00,40.1,24.8,30.26,East,95,1.0,1.0,54,0.02,,---,0.10,VWS V14.01,2013-12-13 19:18:00,
2013-12-13 14:23:00,40.0,23.8,30.26,ESE,119,1.0,2.0,52,0.03,,---,0.11,VWS V14.01,2013-12-13 19:23:00,
2013-12-13 14:28:00,40.1,24.8,30.25,SSE,159,0.0,3.0,54,0.03,,---,0.11,VWS V14.01,2013-12-13 19:28:00,
2013-12-13 14:33:00,40.4,24.6,30.25,ESE,115,0.0,1.0,53,0.02,,---,0.11,VWS V14.01,2013-12-13 19:33:00,
2013-12-13 14:38:00,40.5,24.3,30.25,ESE,102,1.0,3.0,52,0.02,,---,0.11,VWS V14.01,2013-12-13 19:38:00,
2013-12-13 14:43:00,40.6,23.9,30.25,ESE,105,1.0,4.0,51,0.03,,---,0.12,VWS V14.01,2013-12-13 19:43:00,
2013-12-13 14:48:00,40.7,24.0,30.25,SE,126,0.0,4.0,51,0.03,,---,0.12,VWS V14.01,2013-12-13 19:48:00,
2013-12-13 14:53:00,40.8,24.5,30.25,SW,216,0.0,1.0,52,0.03,,---,0.12,VWS V14.01,2013-12-13 19:53:00,
2013-12-13 14:58:00,40.7,24.5,30.25,ESE,105,0.0,0.0,52,0.02,,---,0.12,VWS V14.01,2013-12-13 19:58:00,
2013-12-13 15:03:00,40.8,24.5,30.25,ENE,75,2.0,2.0,52,0.03,,---,0.13,VWS V14.01,2013-12-13 20:03:00,
2013-12-13 15:07:00,40.7,24.5,30.25,ESE,105,1.0,2.0,52,0.03,,---,0.13,VWS V14.01,2013-12-13 20:07:00,
2013-12-13 15:12:00,40.6,24.4,30.25,SE,138,0.0,2.0,52,0.03,,---,0.13,VWS V14.01,2013-12-13 20:12:00,
2013-12-13 15:17:00,40.3,23.6,30.24,ESE,122,2.0,2.0,51,0.03,,---,0.13,VWS V14.01,2013-12-13 20:17:00,
2013-12-13 15:22:00,40.0,24.7,30.24,ESE,115,1.0,2.0,54,0.02,,---,0.13,VWS V14.01,2013-12-13 20:22:00,
2013-12-13 15:27:00,39.7,24.9,30.24,ESE,114,0.0,0.0,55,0.02,,---,0.13,VWS V14.01,2013-12-13 20:27:00,
2013-12-13 15:32:00,39.5,25.1,30.23,ESE,121,0.0,0.0,56,0.02,,---,0.13,VWS V14.01,2013-12-13 20:32:00,
2013-12-13 15:37:00,39.2,24.8,30.23,SE,145,0.0,0.0,56,0.03,,---,0.14,VWS V14.01,2013-12-13 20:37:00,
2013-12-13 15:42:00,39.0,24.6,30.23,SE,145,0.0,0.0,56,0.02,,---,0.14,VWS V14.01,2013-12-13 20:42:00,
2013-12-13 15:47:00,38.9,23.7,30.22,East,93,0.0,1.0,54,0.02,,---,0.14,VWS V14.01,2013-12-13 20:47:00,
2013-12-13 15:52:00,38.8,23.6,30.22,East,94,2.0,3.0,54,0.02,,---,0.14,VWS V14.01,2013-12-13 20:52:00,
2013-12-13 15:57:00,38.8,23.1,30.22,ESE,121,1.0,1.0,53,0.02,,---,0.14,VWS V14.01,2013-12-13 20:57:00,
2013-12-13 16:02:00,38.8,23.1,30.22,East,101,1.0,3.0,53,0.01,,---,0.14,VWS V14.01,2013-12-13 21:02:00,
2013-12-13 16:07:00,38.8,23.6,30.22,ESE,102,0.0,1.0,54,0.01,,---,0.14,VWS V14.01,2013-12-13 21:07:00,
2013-12-13 16:12:00,38.8,24.0,30.21,ESE,115,0.0,3.0,55,0.01,,---,0.14,VWS V14.01,2013-12-13 21:12:00,
2013-12-13 16:17:00,38.7,23.9,30.21,East,95,0.0,1.0,55,0.01,,---,0.14,VWS V14.01,2013-12-13 21:17:00,
2013-12-13 16:22:00,38.6,24.3,30.22,SE,145,1.0,2.0,56,0.01,,---,0.14,VWS V14.01,2013-12-13 21:22:00,
2013-12-13 16:27:00,38.5,24.2,30.22,East,95,0.0,0.0,56,0.01,,---,0.14,VWS V14.01,2013-12-13 21:27:00,
2013-12-13 16:32:00,38.4,24.9,30.22,East,97,0.0,0.0,58,0.01,,---,0.14,VWS V14.01,2013-12-13 21:32:00,
2013-12-13 16:37:00,38.2,24.3,30.22,ESE,110,0.0,1.0,57,0.01,,---,0.15,VWS V14.01,2013-12-13 21:37:00,
2013-12-13 16:42:00,38.0,24.5,30.22,East,91,0.0,1.0,58,0.01,,---,0.15,VWS V14.01,2013-12-13 21:42:00,
2013-12-13 16:47:00,38.0,24.5,30.21,East,91,0.0,0.0,58,0.01,,---,0.15,VWS V14.01,2013-12-13 21:47:00,
2013-12-13 16:52:00,38.0,24.5,30.22,ESE,110,0.0,0.0,58,0.01,,---,0.15,VWS V14.01,2013-12-13 21:52:00,
2013-12-13 16:57:00,37.8,24.8,30.22,ESE,110,1.0,1.0,59,0.01,,---,0.15,VWS V14.01,2013-12-13 21:57:00,
2013-12-13 17:02:00,37.6,25.4,30.22,ESE,110,0.0,0.0,61,0.01,,---,0.15,VWS V14.01,2013-12-13 22:02:00,
2013-12-13 17:07:00,37.3,25.1,30.22,ESE,110,0.0,0.0,61,0.01,,---,0.15,VWS V14.01,2013-12-13 22:07:00,
2013-12-13 17:12:00,37.1,24.9,30.22,ESE,110,0.0,0.0,61,0.01,,---,0.15,VWS V14.01,2013-12-13 22:12:00,
2013-12-13 17:17:00,36.9,24.7,30.22,ESE,110,0.0,0.0,61,0.01,,---,0.15,VWS V14.01,2013-12-13 22:17:00,
2013-12-13 17:22:00,36.6,25.2,30.22,ESE,110,0.0,0.0,63,0.01,,---,0.15,VWS V14.01,2013-12-13 22:22:00,
2013-12-13 17:27:00,36.5,25.1,30.23,ESE,121,0.0,0.0,63,0.01,,---,0.15,VWS V14.01,2013-12-13 22:27:00,
2013-12-13 17:32:00,36.3,25.3,30.23,ESE,121,0.0,0.0,64,0.01,,---,0.15,VWS V14.01,2013-12-13 22:32:00,
2013-12-13 17:37:00,36.1,25.1,30.24,ESE,121,0.0,0.0,64,0.00,,---,0.15,VWS V14.01,2013-12-13 22:37:00,
2013-12-13 17:42:00,36.1,24.7,30.23,ESE,121,0.0,0.0,63,0.00,,---,0.15,VWS V14.01,2013-12-13 22:42:00,
2013-12-13 17:47:00,36.3,24.5,30.23,ESE,102,0.0,1.0,62,0.00,,---,0.15,VWS V14.01,2013-12-13 22:47:00,
2013-12-13 17:52:00,36.7,24.5,30.23,East,100,0.0,0.0,61,0.00,,---,0.15,VWS V14.01,2013-12-13 22:52:00,
2013-12-13 17:57:00,36.8,24.2,30.23,SE,128,0.0,0.0,60,0.00,,---,0.15,VWS V14.01,2013-12-13 22:57:00,
2013-12-13 18:02:00,36.8,25.4,30.23,South,182,0.0,0.0,63,0.00,,---,0.15,VWS V14.01,2013-12-13 23:02:00,
2013-12-13 18:07:00,36.8,24.6,30.23,East,87,1.0,1.0,61,0.00,,---,0.15,VWS V14.01,2013-12-13 23:07:00,
2013-12-13 18:12:00,37.0,24.0,30.24,ESE,107,0.0,1.0,59,0.00,,---,0.15,VWS V14.01,2013-12-13 23:12:00,
2013-12-13 18:17:00,37.2,25.0,30.24,SSE,149,0.0,0.0,61,0.00,,---,0.15,VWS V14.01,2013-12-13 23:17:00,
2013-12-13 18:22:00,37.3,24.3,30.24,ESE,106,0.0,0.0,59,0.00,,---,0.15,VWS V14.01,2013-12-13 23:22:00,
2013-12-13 18:27:00,37.2,25.4,30.24,ESE,105,0.0,0.0,62,0.00,,---,0.15,VWS V14.01,2013-12-13 23:27:00,
2013-12-13 18:32:00,36.9,24.7,30.24,SE,124,1.0,4.0,61,0.00,,---,0.15,VWS V14.01,2013-12-13 23:32:00,
2013-12-13 18:37:00,37.2,25.0,30.25,WSW,239,0.0,1.0,61,0.00,,---,0.15,VWS V14.01,2013-12-13 23:37:00,
2013-12-13 18:42:00,37.3,26.6,30.25,SW,225,0.0,7.0,65,0.01,,---,0.16,VWS V14.01,2013-12-13 23:42:00,
2013-12-13 18:47:00,37.3,28.1,30.25,NE,53,2.0,2.0,69,0.01,,---,0.16,VWS V14.01,2013-12-13 23:47:00,
2013-12-13 18:52:00,36.9,29.4,30.24,ESE,102,2.0,2.0,74,0.01,,---,0.16,VWS V14.01,2013-12-13 23:52:00,
2013-12-13 18:57:00,36.3,29.5,30.25,ESE,102,0.0,0.0,76,0.01,,---,0.16,VWS V14.01,2013-12-13 23:57:00,
2013-12-13 19:02:00,35.7,29.8,30.24,ENE,61,1.0,3.0,79,0.02,,---,0.17,VWS V14.01,2013-12-14 00:02:00,
2013-12-13 19:07:00,35.1,29.6,30.22,East,86,1.0,2.0,80,0.02,,---,0.17,VWS V14.01,2013-12-14 00:07:00,
2013-12-13 19:12:00,34.6,29.4,30.22,East,98,1.0,2.0,81,0.02,,---,0.17,VWS V14.01,2013-12-14 00:12:00,
2013-12-13 19:17:00,34.3,29.4,30.22,ESE,115,1.0,1.0,82,0.02,,---,0.17,VWS V14.01,2013-12-14 00:17:00,
2013-12-13 19:22:00,33.9,29.3,30.22,ENE,75,0.0,0.0,83,0.02,,---,0.17,VWS V14.01,2013-12-14 00:22:00,
2013-12-13 19:27:00,33.6,29.0,30.21,ENE,75,0.0,1.0,83,0.02,,---,0.17,VWS V14.01,2013-12-14 00:27:00,
2013-12-13 19:32:00,33.2,28.6,30.21,ENE,74,0.0,0.0,83,0.02,,---,0.17,VWS V14.01,2013-12-14 00:32:00,
2013-12-13 19:37:00,32.8,28.5,30.21,ESE,121,2.0,2.0,84,0.02,,---,0.17,VWS V14.01,2013-12-14 00:37:00,
2013-12-13 19:42:00,32.5,28.5,30.21,SE,124,0.0,1.0,85,0.01,,---,0.17,VWS V14.01,2013-12-14 00:42:00,
2013-12-13 19:47:00,32.4,28.4,30.21,East,93,1.0,1.0,85,0.01,,---,0.17,VWS V14.01,2013-12-14 00:47:00,
2013-12-13 19:52:00,32.3,28.3,30.20,ESE,107,0.0,0.0,85,0.01,,---,0.17,VWS V14.01,2013-12-14 00:52:00,
2013-12-13 19:57:00,32.2,28.2,30.20,ENE,69,0.0,1.0,85,0.01,,---,0.17,VWS V14.01,2013-12-14 00:57:00,
2013-12-13 20:02:00,32.0,28.3,30.20,ENE,72,0.0,0.0,86,0.00,,---,0.17,VWS V14.01,2013-12-14 01:02:00,
2013-12-13 20:07:00,32.0,28.3,30.20,ENE,70,0.0,0.0,86,0.00,,---,0.17,VWS V14.01,2013-12-14 01:07:00,
2013-12-13 20:12:00,31.9,28.2,30.20,ENE,67,0.0,0.0,86,0.00,,---,0.17,VWS V14.01,2013-12-14 01:12:00,
2013-12-13 20:13:00,31.9,28.2,30.20,East,79,0.0,1.0,86,0.00,,---,0.17,VWS V14.01,2013-12-14 01:13:00,
2013-12-13 20:18:00,31.9,28.5,30.19,ENE,57,2.0,2.0,87,0.00,,---,0.17,VWS V14.01,2013-12-14 01:18:00,
2013-12-13 20:23:00,31.8,28.4,30.19,East,89,0.0,1.0,87,0.00,,---,0.17,VWS V14.01,2013-12-14 01:23:00,
2013-12-13 20:28:00,31.8,28.7,30.19,ENE,65,2.0,3.0,88,0.01,,---,0.18,VWS V14.01,2013-12-14 01:28:00,
2013-12-13 20:33:00,31.9,28.8,30.18,ENE,64,0.0,3.0,88,0.01,,---,0.18,VWS V14.01,2013-12-14 01:33:00,
2013-12-13 20:38:00,31.9,28.8,30.17,East,86,0.0,2.0,88,0.01,,---,0.18,VWS V14.01,2013-12-14 01:38:00,
2013-12-13 20:43:00,31.8,28.7,30.18,ENE,61,2.0,2.0,88,0.01,,---,0.18,VWS V14.01,2013-12-14 01:43:00,
2013-12-13 20:48:00,31.8,28.7,30.17,ENE,65,1.0,3.0,88,0.01,,---,0.18,VWS V14.01,2013-12-14 01:48:00,
2013-12-13 20:53:00,31.8,28.7,30.17,NE,50,1.0,2.0,88,0.01,,---,0.18,VWS V14.01,2013-12-14 01:53:00,
2013-12-13 20:58:00,31.8,28.7,30.17,ENE,60,2.0,3.0,88,0.01,,---,0.18,VWS V14.01,2013-12-14 01:58:00,
2013-12-13 21:03:00,31.8,28.7,30.17,ENE,74,2.0,3.0,88,0.01,,---,0.18,VWS V14.01,2013-12-14 02:03:00,
2013-12-13 21:08:00,31.8,28.9,30.17,ENE,74,0.0,0.0,89,0.01,,---,0.18,VWS V14.01,2013-12-14 02:08:00,
2013-12-13 21:13:00,31.8,28.7,30.18,ENE,72,0.0,1.0,88,0.01,,---,0.18,VWS V14.01,2013-12-14 02:13:00,
2013-12-13 21:18:00,31.7,28.6,30.18,ENE,69,1.0,1.0,88,0.01,,---,0.18,VWS V14.01,2013-12-14 02:18:00,
2013-12-13 21:22:00,31.7,28.8,30.19,NE,46,1.0,2.0,89,0.01,,---,0.18,VWS V14.01,2013-12-14 02:22:00,
2013-12-13 21:27:00,31.7,28.8,30.18,ENE,74,0.0,1.0,89,0.01,,---,0.18,VWS V14.01,2013-12-14 02:27:00,
2013-12-13 21:32:00,31.7,28.6,30.17,East,87,2.0,4.0,88,0.00,,---,0.18,VWS V14.01,2013-12-14 02:32:00,
2013-12-13 21:37:00,31.6,28.7,30.17,ENE,69,1.0,2.0,89,0.00,,---,0.18,VWS V14.01,2013-12-14 02:37:00,
2013-12-13 21:42:00,31.6,28.7,30.17,East,96,1.0,3.0,89,0.00,,---,0.18,VWS V14.01,2013-12-14 02:42:00,
2013-12-13 21:47:00,31.6,28.7,30.16,ENE,65,1.0,3.0,89,0.00,,---,0.18,VWS V14.01,2013-12-14 02:47:00,
2013-12-13 21:52:00,31.6,28.7,30.16,ENE,72,0.0,1.0,89,0.00,,---,0.18,VWS V14.01,2013-12-14 02:52:00,
2013-12-13 21:57:00,31.5,28.9,30.16,East,97,1.0,2.0,90,0.00,,---,0.18,VWS V14.01,2013-12-14 02:57:00,
2013-12-13 22:02:00,31.6,29.0,30.16,ESE,119,2.0,3.0,90,0.00,,---,0.18,VWS V14.01,2013-12-14 03:02:00,
2013-12-13 22:07:00,31.6,29.0,30.15,East,91,2.0,4.0,90,0.00,,---,0.18,VWS V14.01,2013-12-14 03:07:00,
2013-12-13 22:12:00,31.6,29.0,30.15,East,83,2.0,2.0,90,0.00,,---,0.18,VWS V14.01,2013-12-14 03:12:00,
2013-12-13 22:17:00,31.7,29.1,30.15,ESE,110,1.0,1.0,90,0.00,,---,0.18,VWS V14.01,2013-12-14 03:17:00,
2013-12-13 22:22:00,31.7,29.1,30.15,SE,136,2.0,2.0,90,0.00,,---,0.18,VWS V14.01,2013-12-14 03:22:00,
2013-12-13 22:27:00,31.8,29.2,30.16,ESE,102,2.0,2.0,90,0.00,,---,0.18,VWS V14.01,2013-12-14 03:27:00,
2013-12-13 22:32:00,31.8,29.2,30.16,ESE,104,0.0,0.0,90,0.00,,---,0.18,VWS V14.01,2013-12-14 03:32:00,
2013-12-13 22:37:00,31.9,29.3,30.16,ENE,66,2.0,2.0,90,0.00,,---,0.18,VWS V14.01,2013-12-14 03:37:00,
2013-12-13 22:42:00,32.0,29.1,30.18,ENE,57,0.0,0.0,89,0.00,,---,0.18,VWS V14.01,2013-12-14 03:42:00,
2013-12-13 22:47:00,32.0,29.1,30.17,ENE,58,1.0,1.0,89,0.00,,---,0.18,VWS V14.01,2013-12-14 03:47:00,
2013-12-13 22:52:00,32.0,29.1,30.17,ENE,68,0.0,0.0,89,0.00,,---,0.18,VWS V14.01,2013-12-14 03:52:00,
2013-12-13 22:57:00,31.9,29.0,30.16,ENE,74,0.0,1.0,89,0.00,,---,0.18,VWS V14.01,2013-12-14 03:57:00,
2013-12-13 23:02:00,31.8,28.9,30.16,ENE,74,0.0,0.0,89,0.00,,---,0.18,VWS V14.01,2013-12-14 04:02:00,
2013-12-13 23:07:00,31.7,28.8,30.16,East,100,0.0,0.0,89,0.01,,---,0.19,VWS V14.01,2013-12-14 04:07:00,
2013-12-13 23:12:00,31.7,29.1,30.16,ESE,105,1.0,1.0,90,0.01,,---,0.19,VWS V14.01,2013-12-14 04:12:00,
2013-12-13 23:17:00,31.7,29.1,30.17,SE,142,0.0,0.0,90,0.01,,---,0.19,VWS V14.01,2013-12-14 04:17:00,
2013-12-13 23:22:00,31.6,29.0,30.17,SE,124,0.0,0.0,90,0.01,,---,0.19,VWS V14.01,2013-12-14 04:22:00,
2013-12-13 23:27:00,31.6,29.0,30.18,WSW,247,0.0,0.0,90,0.01,,---,0.19,VWS V14.01,2013-12-14 04:27:00,
2013-12-13 23:32:00,31.5,28.9,30.18,ENE,68,3.0,3.0,90,0.01,,---,0.19,VWS V14.01,2013-12-14 04:32:00,
2013-12-13 23:37:00,31.6,29.0,30.18,WSW,237,0.0,0.0,90,0.01,,---,0.19,VWS V14.01,2013-12-14 04:37:00,
2013-12-13 23:42:00,31.6,29.0,30.17,WSW,237,0.0,0.0,90,0.01,,---,0.19,VWS V14.01,2013-12-14 04:42:00,
2013-12-13 23:47:00,31.5,28.9,30.17,SW,236,0.0,0.0,90,0.01,,---,0.19,VWS V14.01,2013-12-14 04:47:00,
2013-12-13 23:52:00,31.6,29.3,30.15,NNE,12,3.0,3.0,91,0.01,,---,0.19,VWS V14.01,2013-12-14 04:52:00,
2013-12-13 23:57:00,31.7,29.4,30.15,NNE,22,3.0,3.0,91,0.01,,---,0.19,VWS V14.01,2013-12-14 04:57:00,